Location: Izdebno
(52.6670°N, 16.2170°E)
Time: 03:21:35
(UTC+02:00)

SR - Pass Details

Date: 25 February 2024
Orbit: 577 x 862 km, 66.7° (Epoch: 22 April)

Event Time Altitude Azimuth Distance (km) Brightness Sun altitude
Rises 16:00:55 0° 224° (SW) 3,439 ? 10.9°
Reaches altitude 10° 16:03:26 10° 226° (SW) 2,498 ? 10.6°
Maximum altitude 16:09:15 74° 312° (NW) 878 ? 9.8°
Drops below altitude 10° 16:14:50 10° 38° (NE) 2,396 ? 9.1°
Sets 16:17:12 0° 40° (NE) 3,290 ? 8.8°
